Theta_e
340 341 341 341 342 342 342 342 341 343 342 341 341 340 342 345 346 345 346 350 352 349 349 347 345 346 345 343 342 344 351 350 351 354 357 359 361 362 364 365 367 367 367 367 363 366 362 362 362 365 365 361 358 356 358 358 359 360 360 363 357 356 356 355 355 354 352 347 346 347 345 347 360 351 348 347 347 347 349 349 348 351 352 354 355
340 339 340 341 342 342 342 341 343 340 341 342 340 342 341 345 345 344 348 350 352 350 350 348 347 347 344 341 342 344 350 347 346 351 357 359 360 362 364 365 367 367 368 367 366 360 360 360 359 365 363 361 359 362 359 367 362 360 360 353 358 354 352 354 355 354 345 340 336 340 340 344 349 345 344 345 346 346 345 347 346 348 347 351 354
338 339 340 340 341 342 342 341 341 342 342 342 342 343 341 345 344 344 349 350 352 352 351 349 350 350 347 344 344 345 351 349 349 351 360 359 360 362 363 364 366 367 368 370 367 362 360 362 363 363 361 363 362 361 362 361 360 359 357 354 353 355 356 361 355 352 345 347 347 339 335 334 340 344 344 343 345 345 344 345 346 345 345 347 350
335 337 338 339 340 341 341 341 340 342 342 341 342 343 342 346 344 344 350 351 352 353 354 352 351 350 348 347 346 346 345 349 351 353 358 358 358 360 363 363 364 364 367 368 367 367 365 364 366 363 359 363 363 361 359 359 359 358 358 358 356 350 350 352 361 356 351 345 332 335 335 335 331 333 337 341 343 344 343 342 344 344 344 344 342
338 336 338 339 339 340 341 341 342 341 341 340 342 343 341 346 346 345 350 352 352 355 354 353 353 350 348 348 346 346 348 346 346 344 353 356 356 356 361 362 364 363 364 365 365 364 363 365 362 364 361 364 365 363 361 360 361 358 358 356 354 352 349 351 354 356 353 354 347 340 336 334 334 335 336 335 344 340 342 342 345 342 342 342 342
339 339 337 339 339 339 341 342 341 341 341 341 344 344 341 346 347 347 350 353 352 354 353 352 351 346 345 343 340 338 338 339 340 339 348 352 353 355 359 362 362 362 362 363 364 364 362 364 361 365 363 364 364 363 361 358 357 358 359 359 355 356 353 351 349 356 356 362 352 348 341 331 331 335 333 326 349 337 339 341 342 342 342 343 343
341 341 339 338 339 339 341 341 341 341 342 343 344 344 341 347 347 348 348 352 353 353 352 352 349 345 345 342 341 337 337 338 342 340 346 350 352 353 355 358 359 360 361 361 361 363 362 363 363 364 367 365 368 365 360 359 360 360 360 358 358 362 358 349 351 352 354 355 357 352 351 353 347 337 331 338 328 335 342 338 338 340 341 342 344
338 339 340 338 339 339 340 341 342 343 344 343 344 344 343 348 347 349 349 352 354 352 351 352 348 344 344 344 343 339 337 338 341 339 341 347 350 351 353 355 357 358 359 359 360 362 361 361 362 363 365 363 366 365 361 359 359 360 360 360 359 362 361 354 353 354 350 352 358 351 350 351 340 341 338 337 332 331 329 337 337 337 340 341 344
339 339 339 339 339 340 341 341 343 344 345 344 344 345 347 347 348 349 351 350 354 351 351 351 350 344 345 344 343 344 339 341 343 345 341 344 346 350 351 353 356 357 357 360 359 362 363 361 362 361 362 361 367 363 360 360 356 356 361 361 360 361 360 361 358 356 351 349 350 349 349 347 342 341 341 341 337 333 331 333 333 334 338 338 340
340 340 340 340 340 341 343 343 344 344 346 347 346 347 348 348 349 348 351 350 353 351 350 351 350 347 346 343 343 342 345 344 341 346 341 339 339 349 350 352 355 355 359 359 358 361 362 362 362 361 361 362 362 359 358 358 356 358 363 361 363 360 358 361 357 360 358 355 351 351 347 345 342 345 341 335 337 336 329 331 332 334 331 335 336
339 338 341 342 342 341 343 343 343 344 346 347 347 347 350 347 350 348 350 352 354 351 350 350 350 347 346 345 344 341 346 344 339 342 345 340 337 346 349 352 353 353 357 359 357 361 360 363 362 361 362 362 362 357 356 356 354 360 362 363 362 363 362 360 364 360 359 356 354 351 349 347 339 341 338 343 339 337 335 336 335 336 335 332 340
339 338 339 342 342 340 342 342 343 343 345 347 347 348 350 349 350 350 349 353 354 352 350 350 350 349 347 347 345 342 347 344 340 340 344 343 340 342 350 352 352 353 354 357 356 360 361 360 362 361 361 360 359 358 359 358 355 360 359 360 360 363 364 365 362 359 359 358 358 356 351 351 348 345 346 347 341 340 336 334 335 336 339 339 345
338 338 339 340 341 340 340 342 342 343 344 346 347 348 350 350 349 350 350 352 354 353 351 350 350 350 348 347 346 344 346 346 341 341 342 344 344 341 346 350 352 352 352 354 356 356 360 359 359 359 359 361 360 358 357 361 359 356 356 360 359 359 360 363 358 360 358 354 355 355 354 352 347 343 345 347 346 351 339 335 338 338 333 335 342
337 338 340 340 341 341 341 341 343 344 345 346 347 349 350 351 350 350 351 352 355 353 352 350 349 351 349 347 347 346 345 346 344 343 343 343 344 343 342 346 351 352 353 353 355 356 360 360 360 359 361 360 360 359 357 358 362 361 361 357 357 359 359 360 360 361 359 357 358 356 355 353 350 348 343 344 341 343 337 335 335 338 338 336 341
337 337 339 340 341 341 341 342 344 344 345 347 347 349 350 351 351 350 351 352 354 354 352 350 350 351 351 348 348 347 344 345 345 346 343 343 343 346 344 343 346 351 353 354 356 355 359 360 359 358 361 361 361 363 362 360 362 361 364 361 358 360 360 359 359 359 359 358 359 357 357 358 356 352 347 340 340 341 341 339 337 334 335 335 337
337 338 339 340 341 342 342 342 344 345 346 347 347 349 350 351 352 351 352 353 354 355 353 351 350 351 352 349 348 349 348 345 346 349 346 345 344 345 347 345 345 347 351 354 355 355 356 358 360 358 359 363 361 362 361 362 361 359 358 360 358 365 358 357 358 358 357 357 358 357 360 360 358 357 355 348 345 345 346 347 345 338 330 326 334
338 339 339 339 341 342 342 342 345 346 346 346 347 349 350 351 353 352 353 354 354 356 354 352 351 351 352 351 349 349 349 346 344 346 349 346 346 344 347 348 348 348 349 353 352 356 354 358 358 358 359 361 363 361 362 361 362 361 360 358 357 359 358 357 357 355 356 356 355 358 357 356 356 358 357 356 358 353 354 353 349 343 336 332 330
338 339 339 341 342 343 343 344 345 346 347 346 347 348 351 353 353 353 354 354 354 356 355 354 352 352 352 351 350 349 349 348 346 345 349 348 348 346 346 348 349 351 351 351 351 350 356 363 357 357 359 360 362 362 362 362 362 359 361 360 360 359 358 359 359 357 356 355 355 354 357 356 358 358 356 355 355 358 354 349 348 353 345 335 332
337 338 339 340 343 343 343 344 346 347 348 347 348 349 350 354 355 355 355 356 356 357 357 356 355 354 354 353 351 350 350 349 348 347 347 350 349 348 347 348 349 352 352 350 351 349 353 358 357 357 359 359 360 361 362 362 362 359 359 360 360 359 358 357 358 358 358 358 355 354 355 356 358 357 355 355 356 355 354 353 351 350 348 342 341
337 339 339 340 342 344 344 344 345 346 347 348 348 349 350 353 355 355 356 357 357 357 358 357 356 355 355 355 353 352 352 350 349 348 346 348 350 350 349 349 348 350 352 350 350 350 349 356 357 357 359 359 359 360 362 361 361 359 358 359 359 359 358 357 358 359 359 357 354 354 354 355 359 359 357 357 357 359 356 353 353 353 350 347 343
336 338 339 340 341 343 345 345 346 347 348 349 348 348 350 352 355 356 355 356 357 357 358 358 357 356 355 354 354 354 353 352 350 349 347 346 350 352 351 350 350 347 348 350 350 351 350 353 357 356 358 358 358 357 360 361 360 359 358 358 356 357 357 357 357 356 358 356 356 354 352 355 357 355 355 357 357 356 358 356 354 353 351 351 348
337 338 339 340 341 342 345 346 346 347 348 348 348 349 350 351 354 356 357 357 357 357 357 357 357 356 355 354 354 355 355 354 352 351 350 347 347 350 352 351 350 349 347 346 352 352 352 352 354 355 356 358 358 357 358 360 360 359 358 360 358 356 356 356 357 356 357 359 356 353 354 356 357 355 356 355 355 354 354 353 354 356 354 354 351
337 338 339 339 340 342 344 347 347 347 349 349 349 350 351 352 354 356 357 357 358 357 357 357 357 356 355 355 355 355 355 355 354 352 352 350 348 349 352 351 350 350 349 346 349 353 354 352 352 353 353 354 357 357 357 358 359 359 358 358 359 357 357 356 356 357 357 358 357 356 355 356 360 356 356 356 355 354 353 352 352 354 353 353 354
337 338 339 339 340 341 343 345 346 346 347 348 349 349 351 353 355 356 357 357 358 358 358 357 356 356 356 355 354 354 355 355 354 354 354 353 351 350 351 351 350 351 351 349 346 351 354 354 353 353 353 352 354 356 356 357 358 359 358 357 357 356 356 357 357 357 358 358 357 355 355 356 356 354 355 355 354 354 352 352 352 354 353 353 354
335 337 339 341 341 341 343 345 345 346 347 348 349 349 350 350 353 353 357 359 359 359 358 358 357 356 355 354 353 354 353 354 355 355 355 356 354 352 351 351 351 350 351 350 348 348 353 355 354 354 353 352 354 356 356 356 357 359 359 358 357 356 354 355 357 357 364 358 357 356 355 355 354 353 353 354 354 353 353 352 352 352 353 355 356
336 337 338 338 339 341 343 345 345 346 348 348 348 349 349 349 351 352 353 355 357 360 359 358 357 356 355 354 353 353 353 353 354 355 355 356 356 354 352 352 352 350 350 351 350 348 349 354 355 356 356 354 354 356 356 356 356 358 358 358 358 357 356 354 355 355 359 359 358 357 357 356 355 354 353 354 353 353 353 353 352 352 353 353 352
336 337 337 337 338 338 342 345 346 347 348 348 348 348 349 349 349 352 353 354 356 358 359 358 357 356 355 354 353 353 353 353 354 354 355 355 355 355 353 352 353 352 349 350 351 350 349 352 355 356 357 357 354 355 356 355 355 356 358 358 358 357 357 357 355 355 356 359 359 359 357 357 356 355 354 353 353 353 353 353 354 354 353 353 353
334 335 334 334 337 339 342 345 346 346 347 348 348 349 349 348 349 350 352 354 356 357 358 358 357 356 355 354 354 354 353 353 354 354 355 355 355 355 354 353 353 352 349 349 350 352 351 351 354 356 357 359 356 355 355 355 355 355 356 357 357 357 357 357 357 357 356 357 358 359 359 358 357 356 355 354 353 353 354 353 354 355 355 353 352
339 340 336 335 336 339 342 344 345 346 346 346 348 348 349 349 349 350 351 352 355 356 357 358 357 356 355 355 355 355 355 354 354 354 354 354 354 354 354 353 352 352 351 350 351 353 353 352 353 355 356 358 358 357 356 356 355 354 355 356 356 357 357 356 356 356 356 357 358 359 359 359 359 367 362 360 359 359 355 353 353 353 353 354 353
335 339 341 343 341 341 342 343 344 345 344 345 346 347 349 349 348 350 351 353 355 355 356 357 357 357 356 355 355 355 354 355 354 353 353 353 353 353 353 354 353 352 351 350 351 352 354 354 354 354 355 356 357 359 354 345 349 355 355 355 356 356 356 356 356 355 355 355 356 358 360 369 367 362 354 351 349 352 358 357 355 354 354 353 353
333 336 339 341 343 343 345 346 342 344 344 345 345 347 348 349 349 350 351 353 355 354 356 356 357 358 357 356 355 354 354 354 354 354 354 353 352 352 353 354 354 353 352 351 350 351 352 354 355 355 354 354 355 356 344 336 339 344 355 355 354 354 355 355 355 354 354 354 355 356 357 365 369 370 358 347 346 345 346 349 352 359 363 356 354
330 332 334 337 340 343 343 341 341 341 343 346 348 349 349 348 349 349 351 353 354 354 355 356 357 358 358 356 355 355 354 354 354 354 354 353 352 352 352 353 354 352 352 352 350 350 352 353 355 356 355 355 355 348 336 334 336 337 346 357 355 354 355 354 353 354 354 354 354 355 356 357 357 356 360 358 350 346 342 343 344 346 350 356 357
327 328 331 333 335 338 341 346 345 342 340 342 344 348 348 347 347 348 347 350 352 351 354 355 357 359 358 357 356 355 355 354 354 355 354 353 352 352 351 352 353 354 353 352 351 350 351 353 354 355 356 357 356 343 333 332 333 334 336 350 355 353 354 354 353 353 353 353 353 353 353 355 356 367 365 358 356 354 344 338 340 342 344 343 340
325 326 328 330 333 336 338 342 351 348 351 351 349 346 347 350 351 351 351 351 349 346 347 352 357 359 358 358 356 356 355 355 355 355 355 353 352 352 352 352 354 355 353 353 352 350 351 353 354 354 356 358 357 345 330 329 330 331 333 341 356 353 352 353 354 354 354 352 352 352 351 351 350 352 354 354 355 354 353 350 347 346 348 351 345
323 324 326 328 330 334 335 340 342 349 349 343 344 345 346 348 349 350 351 351 351 348 346 344 347 354 359 358 357 356 355 355 356 356 355 354 353 352 352 352 353 354 354 353 352 351 350 353 355 355 355 357 359 339 327 326 326 326 330 336 355 355 352 350 351 354 354 353 352 352 352 351 350 349 350 354 353 354 353 352 350 348 349 349 351
323 324 325 327 329 330 332 335 341 345 346 351 346 345 346 347 350 349 349 349 350 349 347 347 347 348 357 358 357 356 356 356 356 356 355 354 353 352 352 352 352 353 355 355 354 353 352 351 354 356 355 355 358 333 327 325 324 325 328 344 353 354 353 351 349 350 353 354 354 353 352 352 351 351 353 346 353 355 355 354 352 351 351 351 352
323 324 325 327 329 330 332 335 337 340 344 347 351 352 346 345 345 349 347 348 349 348 347 347 348 351 358 359 358 357 356 356 356 356 355 355 354 353 353 354 351 351 354 354 354 353 353 352 352 354 355 355 357 336 325 322 322 323 327 347 352 354 354 352 351 351 352 354 356 355 353 353 353 352 348 336 337 353 353 356 356 356 357 356 356
321 323 325 326 327 329 332 335 336 339 343 347 351 355 352 348 343 347 347 347 348 347 348 348 349 352 358 360 359 358 357 357 356 356 356 356 356 355 353 355 352 351 351 354 355 354 354 354 352 352 354 355 357 339 321 321 320 320 331 349 352 353 353 353 352 352 354 356 360 368 366 354 353 353 341 333 334 344 348 349 351 354 356 358 360
320 321 322 323 325 328 332 335 336 337 341 344 346 348 350 351 351 344 347 347 347 348 349 349 350 354 359 361 360 359 358 357 357 357 357 357 356 355 354 355 354 353 351 354 356 355 354 354 354 353 351 351 354 342 317 320 319 318 330 350 352 353 352 352 352 351 351 352 352 360 366 361 357 352 337 332 331 342 350 350 349 349 350 351 355
319 321 322 324 327 328 330 332 334 336 341 343 345 347 348 350 351 351 345 344 347 349 350 351 353 357 361 361 361 360 359 358 358 358 358 358 358 357 355 354 354 354 351 352 355 355 354 354 355 355 354 353 352 352 329 316 316 316 321 349 352 352 351 352 352 351 351 350 351 351 350 334 330 332 331 327 326 328 351 354 353 352 350 350 355
319 320 325 323 325 327 328 331 334 337 340 343 346 346 347 349 351 349 348 346 345 348 350 351 355 359 361 362 362 361 360 359 360 359 359 359 359 358 356 355 354 354 352 351 352 354 355 355 355 356 355 355 354 353 340 313 313 314 316 331 352 352 352 352 352 352 351 351 351 352 352 340 328 324 322 321 319 319 334 356 356 355 355 354 355
320 322 322 322 323 324 327 330 333 336 339 341 344 345 347 348 350 351 351 349 346 345 347 350 358 360 361 362 362 362 362 361 361 361 360 359 359 359 358 356 355 353 351 350 352 354 355 355 356 356 356 355 354 345 352 316 314 312 314 319 347 353 353 353 352 352 353 352 353 353 354 345 331 325 321 318 316 317 320 345 356 337 338 341 356
318 319 321 322 322 323 325 328 332 335 338 342 345 347 349 351 350 351 354 352 346 343 347 351 356 360 361 362 363 362 362 363 363 362 361 359 360 359 358 357 355 353 351 350 352 354 354 355 355 356 356 356 357 353 339 333 314 311 311 314 326 342 337 354 354 352 353 354 355 355 356 351 330 322 319 318 317 317 321 333 328 328 330 334 351
320 319 320 322 322 324 326 330 332 335 340 348 353 354 356 356 355 357 356 353 345 346 346 351 358 359 360 362 363 364 364 364 364 363 362 361 361 360 359 357 355 353 351 350 350 352 353 354 354 355 356 356 357 358 340 328 324 312 311 313 317 325 332 349 356 355 355 356 356 356 352 336 325 317 316 318 319 319 331 322 319 324 329 338 349
317 318 321 322 322 324 327 328 331 334 341 349 354 353 353 352 357 360 357 353 346 348 351 350 354 359 360 362 364 364 364 365 365 365 363 361 361 361 359 358 357 354 352 350 350 350 351 352 353 354 355 356 357 358 355 334 323 315 313 312 314 319 322 328 351 356 356 357 344 336 333 327 324 318 317 318 319 319 317 320 321 323 341 345 346
318 319 320 322 324 325 325 326 328 334 342 345 346 347 345 348 353 358 357 353 349 349 352 354 356 357 359 362 363 364 365 365 366 366 365 364 362 362 360 359 358 356 354 352 351 350 349 350 350 353 354 356 357 357 357 349 331 323 317 313 315 317 322 324 339 352 346 339 332 330 327 326 326 326 331 335 337 338 325 321 323 330 337 343 346
317 319 321 322 322 323 323 325 327 332 338 340 340 342 344 347 350 353 360 355 351 350 353 355 357 358 359 362 363 363 364 364 365 366 366 365 364 363 361 359 359 358 356 354 352 351 350 349 349 349 351 354 355 357 358 352 343 336 331 326 319 321 320 322 331 341 343 341 331 333 334 328 332 326 334 336 336 339 338 335 332 334 337 342 344
318 319 323 322 322 322 321 323 325 330 332 335 337 339 341 343 348 351 352 358 354 352 353 356 358 358 359 361 362 362 362 363 363 365 365 365 364 363 362 360 359 359 357 355 354 352 351 350 349 349 349 350 352 355 358 355 345 341 337 333 328 328 328 330 334 340 344 348 345 336 331 341 338 336 338 343 342 344 341 338 337 336 338 341 345
317 319 322 322 322 322 320 322 324 328 328 329 333 337 339 338 343 351 351 355 357 353 354 357 358 359 359 360 362 362 363 363 363 363 365 365 364 363 361 362 364 364 361 359 357 356 354 354 353 351 349 348 349 351 356 340 349 330 336 337 333 331 332 333 332 329 344 347 347 346 347 348 346 345 343 347 348 348 345 342 341 340 340 342 344
318 320 321 322 324 323 320 321 323 325 325 326 329 331 335 338 339 344 350 348 354 356 356 358 359 359 360 359 360 361 362 362 363 362 362 362 346 332 350 362 361 350 342 337 336 356 358 356 355 354 353 350 350 352 336 326 320 316 316 320 322 320 320 331 328 320 334 344 346 348 348 348 348 348 348 347 349 350 349 347 345 337 341 344 344
319 319 320 321 323 323 320 321 321 323 323 324 326 327 328 334 335 338 344 348 346 351 357 358 357 357 356 358 359 360 361 362 362 362 362 359 352 341 312 307 318 340 334 323 320 326 332 337 353 355 351 336 337 333 320 314 314 313 313 313 313 313 313 315 316 325 334 340 343 344 345 347 347 348 348 348 347 348 348 349 350 348 347 346 343
Wind_Speed
13 13 13 16 15 14 12 13 14 14 15 14 12 11 14 12 13 13 9 10 8 8 6 6 6 5 5 7 6 4 3 4 6 7 9 8 9 8 7 5 5 4 4 5 4 4 3 3 3 4 4 3 3 3 3 2 2 2 1 0 0 0 1 1 1 1 2 2 2 2 3 2 1 3 3 5 6 5 5 6 6 8 8 8 8
15 12 13 13 14 15 13 12 13 15 15 15 14 12 12 13 14 13 9 10 9 9 7 6 5 5 7 7 5 5 4 6 5 7 8 9 9 8 7 6 6 5 4 5 5 4 4 3 3 4 5 4 3 3 3 2 2 2 1 1 1 0 0 1 2 1 1 2 2 0 1 1 2 3 3 4 6 6 6 6 6 8 8 8 7
13 14 14 14 15 17 12 13 13 15 17 15 14 12 12 13 13 12 11 11 9 9 7 7 5 5 6 6 7 4 2 5 5 7 8 9 9 8 8 7 6 5 5 4 6 5 5 4 3 4 5 4 3 3 3 3 3 3 3 2 1 1 1 1 1 1 1 1 2 3 1 2 2 2 4 3 5 5 4 5 8 8 8 8 8
13 14 15 15 13 15 12 14 13 14 15 14 14 14 11 11 12 12 12 11 10 10 9 7 7 6 6 7 5 5 4 4 3 7 8 9 9 8 7 8 7 6 6 5 5 5 5 5 4 4 4 4 5 4 4 3 3 3 2 2 2 0 1 1 1 3 2 2 2 2 3 3 0 4 5 4 5 6 6 6 6 7 7 7 7
10 14 16 15 15 16 14 13 14 14 16 14 15 14 11 14 14 14 12 12 11 11 10 9 7 5 6 7 4 3 3 3 3 6 8 8 7 7 7 9 8 7 6 7 6 6 6 5 5 5 5 4 5 5 5 5 4 3 3 3 2 2 1 0 1 2 3 2 2 1 1 0 2 3 2 4 5 6 6 7 7 6 6 8 7
11 11 16 17 15 15 15 16 15 15 15 15 15 14 13 13 14 13 11 11 12 12 10 10 8 8 8 7 8 6 7 6 6 7 8 8 9 7 6 9 8 7 7 6 6 6 6 6 5 5 4 4 5 5 4 3 3 3 4 4 3 2 1 0 1 0 0 1 2 3 3 2 1 2 1 2 1 4 6 6 8 8 6 8 7
8 8 10 17 17 16 17 18 16 17 15 15 14 14 15 14 15 14 13 11 12 12 9 10 9 7 9 9 9 10 10 7 7 6 8 7 7 7 7 7 7 7 8 6 6 7 6 6 6 6 5 5 4 3 4 4 4 4 4 3 4 2 2 1 0 2 1 1 2 3 2 2 2 1 1 1 1 1 2 10 7 6 7 7 5
11 11 10 13 17 17 18 18 16 17 15 16 14 13 16 14 15 14 13 12 12 12 11 10 11 9 8 7 8 10 9 9 8 8 7 7 8 8 7 6 7 6 8 6 7 7 6 6 6 6 5 6 5 5 6 5 4 3 4 4 3 2 2 3 1 0 1 2 2 1 3 1 1 2 2 2 2 1 1 3 1 4 6 6 7
14 13 14 14 17 17 16 17 16 17 16 17 15 15 14 14 15 14 14 13 12 15 12 10 10 10 10 7 7 8 9 7 6 7 7 6 8 7 8 7 8 6 6 7 7 7 7 6 5 5 5 4 5 5 5 5 5 4 3 4 4 2 2 2 2 1 1 1 1 1 2 2 3 1 1 2 1 1 2 1 2 1 2 4 6
14 16 15 13 15 18 16 17 17 15 16 15 14 14 13 13 15 15 14 14 13 14 13 11 11 11 9 8 9 7 8 6 6 6 7 7 6 8 7 7 7 7 6 7 7 6 7 6 6 6 5 4 5 5 5 5 4 4 5 6 5 4 3 3 2 2 2 1 1 1 1 2 3 3 2 3 2 1 0 1 3 3 3 5 3
14 14 14 14 12 17 16 18 18 15 15 16 15 15 14 15 15 16 15 13 13 15 14 12 11 12 10 10 9 9 8 9 9 5 7 7 7 8 8 8 7 8 5 7 7 6 6 6 6 6 5 4 5 5 5 6 6 6 5 5 4 5 4 3 2 3 3 3 1 2 3 3 3 1 2 0 1 0 2 1 3 2 2 1 2
15 15 14 14 13 14 17 18 19 17 15 17 16 16 15 16 16 16 15 14 13 15 15 13 12 11 11 11 10 9 9 10 11 9 7 9 8 8 8 7 7 6 6 6 7 7 7 6 6 6 6 5 5 5 4 4 7 6 6 5 5 4 4 3 2 3 4 3 2 3 3 2 3 3 3 4 4 3 4 1 2 2 2 1 3
17 15 16 15 15 14 18 18 18 18 15 18 18 17 16 16 18 18 16 15 15 15 16 15 13 12 12 12 10 9 9 10 11 9 7 8 8 7 8 9 7 7 6 6 7 7 7 7 7 6 7 6 5 5 4 4 3 6 6 6 5 5 5 4 3 3 3 4 4 3 3 2 4 5 3 3 2 3 2 1 2 1 1 2 2
17 15 16 17 16 14 16 16 17 17 16 19 18 18 16 16 18 19 18 16 14 15 16 15 15 13 13 12 11 10 9 10 10 10 8 7 7 8 8 9 9 9 8 8 8 7 7 7 7 6 6 6 6 6 5 4 2 4 5 6 6 6 5 5 5 5 4 5 4 4 4 4 4 5 4 4 4 2 1 1 1 2 0 2 1
16 15 17 18 18 17 16 16 16 17 17 19 17 17 17 17 18 20 18 17 15 16 15 16 15 14 13 12 11 9 11 9 9 10 10 8 7 8 7 7 8 8 9 8 8 8 8 7 8 7 5 6 6 6 6 5 3 3 3 3 4 6 6 6 5 5 5 4 4 5 5 4 4 5 5 6 5 6 4 3 3 2 2 3 2
18 18 18 18 20 18 16 15 16 17 18 17 19 17 17 18 19 21 20 19 17 17 16 17 16 14 14 14 13 11 10 9 8 8 9 10 9 9 8 8 8 7 7 7 9 9 8 9 8 8 7 6 7 6 6 5 4 4 3 2 2 3 5 5 5 4 5 4 6 5 3 5 4 3 1 1 3 4 4 2 4 5 2 2 3
17 17 16 17 17 17 17 16 16 18 18 18 18 18 19 18 19 20 19 17 17 17 17 16 15 14 15 15 13 12 12 12 11 10 11 10 10 9 9 9 8 7 7 6 7 8 8 9 9 9 8 7 6 6 6 5 4 5 5 4 3 3 3 5 5 5 4 4 3 5 6 5 5 3 2 1 2 4 5 5 5 4 5 3 1
19 18 17 16 18 19 18 17 18 19 20 19 19 18 17 18 20 20 19 20 18 16 15 14 14 15 14 15 15 14 13 13 12 12 10 10 9 9 9 8 9 9 9 8 7 7 8 9 9 9 8 7 7 6 7 6 6 5 5 5 5 4 3 3 5 5 5 4 4 3 4 5 5 4 4 3 1 4 4 3 2 3 6 4 3
16 17 15 16 15 17 18 19 17 18 19 19 17 18 16 16 19 20 21 21 20 16 15 13 14 12 12 15 16 15 13 13 12 12 10 11 12 11 11 10 9 9 9 9 8 9 7 8 9 9 8 9 7 7 7 7 6 6 6 6 5 5 4 4 4 5 4 4 4 4 3 5 4 5 4 3 0 2 3 3 2 1 3 4 5
16 16 15 16 17 18 19 19 18 18 18 17 18 17 19 18 20 20 19 18 17 17 17 16 16 14 13 13 14 14 14 14 13 13 12 12 12 12 12 11 12 9 10 11 10 10 9 9 9 10 10 9 8 7 8 7 7 7 7 6 6 6 6 5 4 4 4 4 4 4 4 3 3 2 2 2 1 3 3 4 3 3 3 4 5
16 15 15 16 17 17 18 17 18 17 17 17 17 18 18 17 18 20 21 20 21 20 18 16 15 15 14 15 15 14 15 13 14 14 14 13 12 12 12 12 11 11 9 10 11 11 11 10 10 10 10 10 9 9 7 8 8 8 7 7 6 7 7 6 5 5 4 5 5 5 5 5 4 3 3 2 3 3 4 4 4 4 5 4 5
18 17 16 17 16 18 17 16 16 16 16 18 18 16 17 18 18 19 20 20 21 20 18 17 16 16 17 16 16 15 14 14 15 15 14 14 13 12 12 11 12 13 12 11 11 11 11 12 10 10 10 10 10 10 9 8 9 8 8 7 7 7 8 7 6 7 6 5 4 6 6 6 5 5 4 5 5 4 3 4 5 6 6 6 5
20 18 18 16 17 17 17 16 17 17 16 18 17 16 15 18 18 18 19 20 20 19 18 16 16 16 17 16 16 15 14 16 16 15 16 15 14 13 12 13 12 11 12 12 11 11 12 12 11 10 10 9 10 10 9 9 9 10 10 9 8 7 8 8 8 8 8 6 5 5 6 6 4 5 5 6 5 5 5 5 6 5 6 6 6
17 18 16 16 16 15 15 16 15 15 16 17 16 16 14 14 16 17 20 22 20 18 17 16 17 18 18 16 16 15 16 16 17 15 16 16 15 14 12 13 13 11 12 12 12 11 11 12 13 12 11 10 10 10 10 10 10 11 10 10 9 8 7 8 9 8 8 7 7 6 5 6 5 6 5 5 6 5 5 4 4 5 6 6 6
19 19 18 17 16 16 16 16 16 16 16 17 16 16 15 15 13 12 19 19 18 17 17 18 18 19 18 17 17 16 17 17 17 15 17 16 15 14 13 14 13 13 12 12 12 11 10 12 13 13 12 12 11 11 12 12 10 10 11 10 9 8 8 8 8 8 8 8 7 7 7 5 5 6 5 6 6 6 7 6 6 4 5 6 5
20 20 19 20 19 18 16 15 16 16 17 17 17 17 17 16 16 10 16 16 16 16 17 17 17 18 17 19 18 17 18 19 18 17 17 16 15 14 14 13 14 14 13 13 13 12 11 12 13 13 13 13 12 12 12 13 12 11 10 10 10 9 9 9 8 7 7 8 8 8 7 6 6 7 7 6 6 7 6 6 6 6 6 4 5
19 19 19 18 17 20 18 17 17 18 16 16 17 18 17 17 18 18 17 17 17 16 16 17 17 18 18 19 18 18 18 18 18 17 15 15 15 15 15 15 14 14 14 13 13 13 12 12 12 12 12 12 12 11 11 12 12 11 11 10 10 10 9 7 8 9 8 7 8 8 8 7 7 8 8 7 7 6 7 7 7 7 6 5 5
17 20 19 18 20 18 16 18 18 17 16 15 16 16 18 18 18 17 16 16 14 16 16 16 15 17 17 19 18 18 17 17 16 15 15 15 15 15 15 14 13 14 14 14 14 14 12 12 12 12 12 11 12 11 11 11 11 11 10 10 10 10 10 9 7 8 9 9 9 8 8 8 9 8 8 8 7 7 6 6 7 6 6 6 6
16 17 1 14 17 16 18 19 19 18 17 17 15 15 15 16 16 16 15 16 16 16 17 16 15 16 17 17 16 15 15 15 16 15 15 15 15 14 13 13 14 14 13 14 14 14 13 13 12 12 12 11 11 11 10 11 11 11 10 10 11 11 10 10 9 8 8 8 8 9 9 8 9 11 13 11 10 9 7 7 7 6 6 6 6
19 16 20 14 5 5 13 17 17 18 18 17 16 15 16 17 17 16 16 16 15 16 16 17 18 17 16 16 15 15 15 15 16 16 16 16 15 15 14 14 15 15 14 13 13 14 14 14 13 13 12 11 10 9 12 17 15 12 11 10 9 10 10 9 10 9 9 9 9 9 9 14 15 15 15 15 15 15 14 10 8 7 8 7 7
19 19 16 13 14 15 13 8 3 1 9 15 14 14 15 15 14 13 13 13 16 15 14 16 17 15 14 14 14 15 15 16 17 16 16 16 16 15 14 14 14 14 14 13 11 13 14 14 14 14 13 12 11 10 16 16 17 17 12 9 9 9 9 9 9 9 10 10 9 10 9 11 13 16 15 18 18 17 17 16 15 13 11 9 7
16 15 15 16 16 13 9 6 6 8 10 9 6 6 6 4 4 7 9 9 12 13 15 15 14 12 14 15 15 15 16 16 16 16 16 16 14 14 15 14 14 15 14 12 13 12 13 14 13 14 14 13 12 14 17 17 17 17 15 11 9 8 9 9 9 9 9 9 9 9 9 9 8 8 9 11 15 18 18 18 17 15 14 14 13
15 14 14 15 14 14 12 4 1 3 5 8 7 6 2 10 9 9 10 11 10 9 13 14 14 14 15 15 15 16 16 16 16 16 15 14 14 14 15 14 15 15 14 14 14 12 11 13 14 14 14 13 12 15 17 19 18 18 18 15 9 9 8 10 10 10 9 9 8 8 8 8 9 15 11 8 9 12 15 18 17 17 16 15 14
14 14 14 13 12 12 12 13 3 1 2 4 5 6 5 4 7 8 10 9 8 1 14 13 13 15 15 15 15 16 16 16 15 14 14 15 15 15 15 14 13 13 15 15 14 14 11 12 13 14 13 12 13 15 18 18 19 19 19 16 11 11 10 9 10 11 10 9 9 9 9 8 7 7 7 9 8 9 9 10 11 10 10 13 14
14 15 14 13 11 9 11 14 16 13 5 1 3 5 5 2 2 9 9 10 10 12 13 7 13 13 14 15 16 16 16 15 15 15 15 16 16 14 14 13 13 13 15 15 15 15 13 11 12 13 12 12 12 16 17 19 19 19 19 16 12 10 9 9 9 9 10 10 9 9 9 9 9 8 7 6 7 7 7 8 8 10 11 10 9
14 14 13 13 13 12 13 12 12 12 10 6 4 5 4 7 8 8 10 11 10 12 15 13 15 16 17 17 17 17 16 15 15 15 16 16 16 16 15 13 12 11 11 12 12 13 14 13 11 13 13 13 12 18 19 19 20 20 20 12 11 10 9 9 9 8 8 9 10 10 9 10 10 10 12 15 12 7 6 7 8 8 8 8 9
14 15 15 13 13 13 12 12 12 12 12 10 7 3 5 12 15 14 14 14 14 15 16 18 18 18 18 19 19 18 17 17 16 16 17 17 16 16 14 11 11 11 12 13 13 13 12 13 12 11 13 13 11 16 20 21 21 22 15 11 11 10 10 10 10 8 8 8 9 10 11 11 11 10 13 16 16 13 7 8 8 8 8 7 9
15 15 15 15 15 14 13 12 12 12 11 9 10 10 9 4 5 12 16 16 16 17 18 16 15 15 17 18 18 19 18 18 17 18 18 16 15 14 14 12 12 13 13 13 12 12 12 12 13 13 11 11 12 14 21 21 22 21 17 13 11 11 11 11 11 7 5 5 7 12 12 11 11 11 14 16 16 13 10 9 7 7 7 8 9
14 15 16 16 15 15 14 12 12 13 13 12 13 12 11 10 7 6 14 18 19 18 18 18 17 16 17 17 18 18 18 18 18 18 16 16 16 15 13 12 12 11 11 10 11 11 11 11 12 13 15 13 10 11 19 21 22 21 18 12 12 11 11 11 10 10 9 8 7 8 12 10 10 12 14 16 17 14 10 10 10 8 9 10 10
16 15 15 13 12 14 15 14 14 14 14 14 14 11 10 10 11 10 9 14 18 19 19 17 15 15 15 16 16 18 18 18 18 17 15 15 13 12 14 14 13 11 10 10 11 12 13 12 11 12 12 13 13 9 13 20 21 21 23 15 10 11 12 12 11 11 10 9 10 10 11 14 15 14 13 15 16 17 12 10 8 9 10 12 9
16 17 18 16 13 11 13 14 12 13 14 14 13 11 11 10 11 11 12 12 14 16 16 15 15 16 16 17 16 17 19 18 17 15 15 13 13 14 14 14 14 13 11 10 12 12 13 12 12 11 11 12 12 12 11 19 19 21 22 18 11 12 12 12 11 11 10 10 10 11 10 14 17 17 16 14 13 14 14 10 10 10 11 10 5
12 15 16 17 17 15 14 14 13 15 15 14 13 12 11 12 12 13 14 14 13 13 12 14 14 16 16 16 17 16 16 15 14 13 13 14 13 13 13 14 13 13 14 13 11 11 12 12 11 11 11 11 13 18 10 16 20 20 20 22 12 13 14 12 11 10 10 10 11 11 10 14 18 17 16 15 15 13 15 9 10 13 13 10 7
15 15 16 16 15 16 16 15 14 14 14 14 14 14 13 12 14 16 15 14 13 10 13 14 14 14 15 15 15 16 15 12 12 14 15 14 12 13 13 13 13 13 14 14 12 11 11 11 11 10 10 11 10 12 17 13 18 20 21 22 22 16 18 13 12 12 12 12 11 10 10 14 14 15 16 16 16 17 12 11 15 14 14 13 10
12 14 16 18 14 13 15 15 15 14 14 13 12 13 14 14 17 16 14 14 11 10 11 12 13 15 15 15 15 15 15 13 14 14 14 13 13 13 12 12 13 13 13 13 12 10 10 12 12 11 11 11 10 10 14 18 17 22 22 24 24 21 19 14 13 12 12 12 10 9 10 13 14 16 16 16 17 15 12 16 17 17 15 9 6
13 15 16 15 16 18 17 17 16 16 13 12 11 13 16 18 18 16 15 13 12 11 11 13 14 14 15 14 14 14 14 14 13 14 13 13 14 13 12 12 12 13 13 13 12 12 11 11 11 12 11 11 11 11 10 15 22 22 23 24 24 25 21 21 15 12 11 10 11 12 12 15 15 15 15 13 12 13 16 16 17 17 14 6 6
14 14 18 17 17 17 17 18 18 17 15 14 14 14 15 16 19 17 15 13 14 12 12 14 14 15 15 15 14 14 14 13 13 12 13 13 13 13 13 11 12 13 13 13 13 12 12 11 11 11 11 11 11 11 10 11 13 17 18 23 25 25 24 21 19 15 15 14 13 15 13 7 5 5 5 5 7 10 14 16 15 11 6 7 7
13 13 14 14 16 16 18 20 20 18 16 16 16 15 14 15 15 17 12 13 13 13 13 13 14 14 14 14 14 12 12 12 12 11 11 12 12 12 13 12 12 13 14 13 13 13 13 13 12 11 10 10 11 11 10 9 10 10 10 13 15 16 18 15 9 7 5 6 7 6 7 8 6 11 10 9 8 8 6 5 5 6 6 6 7
10 11 12 13 14 15 17 19 17 16 17 17 16 16 17 18 17 14 15 10 12 13 14 14 16 14 13 13 13 16 15 11 11 12 11 12 12 13 13 14 15 15 15 14 14 14 14 14 13 12 10 9 9 10 10 11 11 11 11 10 10 10 10 11 12 11 9 5 5 3 4 3 4 3 3 2 3 4 5 4 4 5 6 7 7
12 13 13 12 13 15 16 17 16 15 16 17 18 16 15 18 17 16 14 11 9 14 14 15 14 13 12 12 13 12 12 11 10 11 11 11 13 12 12 12 13 12 13 14 15 14 14 14 13 13 13 12 10 10 12 14 15 16 15 11 9 11 10 10 15 18 10 4 4 5 5 5 6 7 5 5 5 5 5 5 4 5 5 5 5
9 10 11 12 13 13 16 16 14 15 16 16 17 17 17 15 17 16 15 12 8 6 12 13 14 13 12 12 11 11 11 11 12 12 11 9 3 4 10 13 13 17 19 19 15 14 14 13 13 12 13 14 15 14 10 15 17 18 19 21 19 19 18 15 17 19 12 9 8 7 7 8 7 6 7 6 6 6 5 5 5 5 5 6 6
10 11 11 12 12 14 15 15 14 16 16 16 15 16 17 17 18 17 15 12 8 6 3 9 12 11 12 13 12 11 11 11 12 11 11 11 7 4 4 3 7 13 18 19 18 17 14 14 12 11 11 15 12 7 14 17 18 19 21 20 19 19 19 20 15 10 5 9 9 9 9 8 8 7 7 7 6 6 6 6 6 6 6 8 8
Wind_Direction
180 185 173 168 162 167 157 153 155 154 155 163 161 154 160 149 152 157 157 154 144 152 148 156 152 140 135 161 172 191 183 157 137 127 139 148 150 149 154 156 151 154 156 142 143 141 135 126 131 144 149 152 152 165 174 192 199 181 147 17 74 106 269 265 324 49 75 29 28 122 168 219 210 187 186 187 189 190 182 169 161 174 190 185 189
176 184 175 174 164 168 158 157 157 156 161 160 165 156 161 152 155 156 151 153 152 157 157 158 168 164 154 170 167 183 162 155 150 137 139 148 152 150 155 160 156 163 164 148 146 149 140 150 149 144 153 163 176 172 173 197 153 135 117 31 329 96 87 201 221 84 27 142 146 236 218 266 238 209 226 224 186 194 179 163 167 183 183 186 186
179 180 177 176 171 164 162 161 159 157 161 161 165 154 158 156 155 156 153 156 156 159 157 166 168 159 153 168 170 169 174 158 162 146 146 148 157 154 154 160 160 164 171 159 152 157 161 161 166 165 164 164 158 179 165 175 189 168 153 156 259 321 260 218 124 120 178 198 159 105 240 142 290 305 283 246 204 196 186 169 179 189 183 178 185
177 185 180 178 175 165 161 164 159 154 162 162 164 159 160 157 157 157 155 158 158 166 164 172 173 165 149 162 169 161 170 159 159 124 144 147 159 161 158 162 167 170 175 167 153 153 160 164 164 169 180 177 169 167 168 177 179 166 148 164 146 263 252 250 156 152 174 122 128 162 203 130 352 281 226 265 208 200 193 181 193 189 179 176 174
185 188 178 178 175 169 165 166 158 160 165 167 167 164 163 162 161 159 159 160 165 168 165 167 174 164 157 157 157 135 126 140 167 122 155 157 155 170 164 165 167 172 174 171 168 158 162 167 164 181 174 182 165 164 176 185 186 177 172 166 192 164 80 81 291 192 211 164 137 79 50 64 223 241 169 280 195 196 207 191 213 194 172 177 189
180 192 177 180 177 169 169 169 166 166 166 170 169 167 158 162 159 161 160 161 169 173 166 165 178 171 173 153 159 165 162 178 182 169 164 164 167 174 159 167 169 173 176 177 170 168 169 173 168 170 175 192 168 171 169 161 165 185 195 168 215 249 161 125 286 290 198 134 165 171 165 173 194 272 86 253 312 179 185 212 204 202 184 181 190
192 194 192 178 179 171 169 173 170 170 166 168 166 167 162 160 162 163 164 165 169 176 169 168 172 181 179 172 165 168 171 191 187 175 159 168 159 167 169 168 173 172 178 177 172 173 174 174 173 174 177 181 177 164 161 184 188 195 183 167 212 208 124 94 115 270 358 340 270 249 227 209 154 74 271 7 67 313 178 202 209 202 198 190 189
189 195 203 189 178 174 171 173 170 170 164 168 167 167 166 163 165 165 167 167 171 174 175 174 175 176 186 174 164 172 176 183 176 180 163 166 165 170 171 172 182 181 174 179 175 173 173 173 172 173 178 183 178 171 170 192 190 196 171 182 183 165 140 141 197 184 130 273 302 6 349 264 134 153 166 153 169 156 326 320 273 209 197 208 188
187 192 201 197 179 176 170 173 170 163 167 171 169 172 165 165 166 164 168 171 171 175 175 176 175 178 181 171 163 176 177 178 169 166 173 167 158 172 174 174 182 192 179 177 177 168 170 173 177 180 177 188 183 171 178 182 189 189 176 157 166 191 170 169 132 205 119 228 7 337 16 16 340 323 213 114 134 106 288 354 305 185 199 221 213
189 195 198 195 179 176 173 171 172 166 172 168 170 166 164 168 170 169 169 174 172 175 178 174 175 177 178 180 166 171 173 176 161 161 175 184 156 172 176 175 179 190 185 177 172 168 165 168 172 185 198 183 178 184 188 189 188 182 177 167 172 177 191 166 173 181 162 210 214 208 60 0 10 8 2 27 27 97 190 339 285 318 151 226 239
193 193 189 191 183 177 170 172 175 172 167 167 170 169 166 173 172 176 174 173 172 176 177 178 177 178 181 183 171 169 168 167 174 169 170 183 171 172 176 182 178 187 175 178 173 169 168 168 174 187 191 197 182 190 199 187 185 190 183 170 164 161 176 191 186 175 173 198 220 186 176 172 176 177 251 34 131 36 38 330 322 336 309 40 252
194 194 186 183 189 182 174 172 175 175 166 169 171 171 169 173 174 177 178 175 175 175 177 179 181 182 183 181 178 174 165 169 177 182 174 178 183 168 174 171 181 182 182 166 183 174 169 177 183 182 189 196 193 204 214 183 186 188 182 174 172 170 175 179 189 173 178 202 251 212 215 216 240 202 209 175 166 184 144 221 246 293 346 240 262
194 190 183 183 188 182 179 174 174 175 172 170 172 173 172 173 176 176 182 179 178 175 179 180 181 184 185 184 181 177 172 170 177 184 180 173 179 169 160 173 172 177 192 178 185 180 172 178 185 185 191 191 190 195 214 227 152 180 183 178 172 174 178 183 187 202 184 176 212 238 219 220 246 246 185 173 215 137 144 162 260 138 192 277 292
195 184 176 182 188 188 180 176 174 176 173 172 174 173 173 176 177 180 183 183 177 179 179 181 185 185 187 187 184 178 178 173 177 185 186 179 174 174 170 168 175 184 183 190 187 181 181 183 186 191 187 189 186 188 203 225 177 147 166 171 178 183 181 181 189 207 195 191 189 218 247 224 234 251 223 182 191 180 183 187 236 335 52 298 292
194 190 183 181 186 185 183 178 174 177 174 174 176 174 173 174 178 182 182 183 181 181 181 184 185 185 187 190 187 185 182 178 180 184 185 182 180 176 183 176 173 184 185 187 186 185 182 184 187 194 189 189 186 182 188 197 174 150 133 174 179 176 178 186 192 197 201 203 195 205 229 258 232 231 212 201 193 187 169 163 161 259 325 2 357
191 190 183 179 181 180 181 177 176 177 178 176 177 173 176 177 179 183 183 183 183 181 185 186 187 186 187 188 191 188 187 184 180 182 184 185 183 178 184 185 188 184 188 179 189 186 182 185 187 194 194 187 187 177 175 172 174 163 178 192 215 167 174 173 192 200 215 210 197 207 210 245 261 276 320 165 188 196 177 144 142 135 133 290 333
188 189 183 178 175 179 180 179 178 179 181 181 179 177 178 176 179 182 183 183 186 185 186 187 186 186 189 190 189 189 188 188 188 186 183 187 183 186 182 188 188 188 192 189 185 188 187 183 186 190 192 188 184 183 175 176 174 169 181 192 210 230 177 183 194 198 230 233 218 200 197 224 258 263 283 141 148 143 147 157 151 148 150 141 214
189 186 187 180 177 178 178 180 179 182 183 182 182 179 177 176 179 179 180 183 186 185 187 188 189 190 190 191 192 191 191 192 190 190 185 182 188 188 188 185 188 190 193 198 195 187 183 186 184 188 189 187 185 183 179 177 176 183 186 192 202 205 214 210 192 187 203 224 241 226 207 212 225 247 264 261 162 153 138 124 125 140 137 152 175
183 187 183 183 177 176 179 179 179 180 182 183 181 180 175 176 178 179 183 184 183 183 185 188 192 194 193 193 192 193 193 192 192 191 188 185 188 189 191 193 190 188 190 194 197 199 184 184 184 185 185 188 187 185 180 180 177 185 190 195 198 198 212 217 217 189 203 192 225 244 215 209 212 213 239 270 281 164 149 139 160 159 173 156 169
187 185 182 185 182 181 181 181 180 179 179 181 180 181 181 177 176 181 182 179 180 183 183 189 193 196 197 197 197 195 193 193 192 189 192 192 191 190 192 191 194 188 190 191 194 196 193 184 186 185 186 185 189 189 183 186 184 188 192 194 197 192 203 214 224 207 199 196 216 233 240 217 207 175 211 230 202 197 178 166 173 179 185 182 159
185 181 182 183 184 186 185 185 187 183 181 182 182 182 183 179 178 178 178 180 185 185 183 187 188 196 197 197 198 195 195 194 194 193 195 196 194 193 194 193 190 195 188 189 194 194 193 190 185 187 185 187 190 191 188 186 189 192 196 194 192 190 195 207 208 226 218 198 205 208 228 231 212 207 228 237 254 208 197 186 190 194 204 192 164
179 183 183 183 185 185 184 185 182 180 181 183 185 182 181 182 179 178 180 183 185 186 186 184 187 192 196 198 199 197 195 194 194 195 197 197 198 196 195 192 192 196 194 192 191 193 191 190 187 188 187 187 190 193 191 186 192 193 197 196 199 193 199 201 199 211 221 220 199 205 216 217 206 201 207 223 225 244 227 212 207 193 201 209 197
179 181 183 185 186 183 184 180 178 176 175 179 180 179 177 180 177 179 180 185 186 188 188 185 186 189 196 198 197 197 196 195 196 197 199 198 199 199 195 196 195 194 196 199 194 191 189 189 189 188 187 185 189 193 193 191 196 195 195 200 202 198 195 198 198 204 211 218 221 207 211 204 195 200 210 213 209 224 230 215 219 209 211 218 208
178 179 178 181 177 180 183 183 181 180 177 179 181 179 170 169 174 175 182 183 185 187 188 188 188 191 193 194 196 198 197 196 197 199 200 200 199 200 197 198 198 194 195 198 198 193 187 187 189 189 190 188 187 192 194 197 198 196 196 199 201 203 199 197 200 200 202 204 218 222 223 207 198 199 211 214 220 220 229 232 217 215 215 221 219
179 178 181 174 175 180 183 183 185 182 181 182 182 182 179 175 171 169 181 182 184 185 188 190 190 190 191 194 197 198 199 199 200 200 201 200 199 199 198 199 197 199 195 195 197 196 187 188 190 190 191 193 191 192 194 199 199 197 197 197 198 201 205 202 200 201 198 198 207 217 225 213 199 207 217 216 215 219 225 231 246 234 205 214 219
182 185 179 177 181 183 180 180 182 182 183 184 185 184 185 183 182 175 178 181 186 186 191 191 190 189 191 195 197 198 200 201 200 200 201 200 199 199 198 199 197 198 197 195 194 196 191 190 192 192 192 195 195 194 195 198 198 196 196 198 197 201 203 204 204 198 198 198 203 212 219 214 210 209 218 218 214 215 212 217 227 239 241 231 222
187 187 186 180 178 179 180 179 178 181 183 185 186 187 187 188 188 188 185 185 188 193 195 193 190 191 190 195 196 198 199 200 200 200 199 199 200 199 199 199 197 198 197 196 195 194 195 192 194 193 194 195 196 196 197 197 198 196 196 196 198 200 204 203 206 206 205 199 202 208 213 211 213 215 219 216 213 216 212 219 218 223 227 225 234
196 194 183 177 175 174 175 177 177 180 183 184 187 188 188 190 192 192 191 189 191 193 195 195 193 193 194 195 197 197 198 199 199 199 198 199 199 200 199 198 197 199 200 198 194 193 194 194 195 196 196 194 196 199 197 198 198 198 194 197 197 198 203 207 205 206 207 208 207 208 210 213 215 217 215 222 211 214 212 219 221 216 220 220 229
35 36 200 176 171 175 179 177 179 179 180 184 187 188 190 192 194 193 194 195 193 193 195 197 198 195 196 195 194 195 197 198 198 197 199 199 199 200 198 195 196 200 201 200 195 192 191 194 196 196 197 196 196 200 198 196 198 200 197 196 198 198 200 203 209 208 204 206 210 213 216 216 214 217 217 216 215 211 204 215 225 212 217 214 224
35 41 49 28 2 207 189 182 181 179 181 186 186 188 190 192 195 193 195 196 193 195 196 198 201 200 195 191 191 193 195 196 197 198 200 199 198 198 197 195 195 198 199 200 196 193 191 192 193 196 197 199 200 200 199 196 196 198 198 199 197 200 200 201 204 208 209 208 211 214 218 216 218 219 219 220 219 217 212 207 209 203 211 214 220
31 36 32 27 39 43 33 15 354 230 200 190 190 190 191 193 196 198 198 192 193 197 201 203 206 200 191 188 190 194 194 196 198 199 199 200 198 196 197 195 193 195 197 199 197 193 193 192 193 194 197 201 203 204 197 194 197 199 197 200 197 201 203 202 201 202 208 208 212 215 222 225 221 220 220 220 222 223 223 221 216 204 199 199 213
26 27 23 24 26 24 29 43 69 65 48 31 36 84 117 165 194 210 210 200 194 203 207 207 209 199 191 189 191 192 195 198 197 200 200 200 200 197 197 194 192 193 195 196 199 196 193 191 193 194 197 200 203 202 193 194 197 199 199 201 202 200 204 206 205 205 208 207 208 210 217 223 228 225 218 224 226 227 226 227 228 222 213 209 205
15 16 20 20 15 9 0 32 344 66 98 90 74 353 176 159 148 115 67 15 330 259 220 211 212 204 196 193 189 192 196 198 200 199 199 199 201 201 199 196 194 192 190 194 200 194 194 193 192 193 196 198 203 199 192 193 197 198 200 201 206 205 202 207 209 210 209 208 208 210 212 219 224 231 227 213 213 226 230 231 232 231 229 222 222
7 6 9 10 6 1 348 349 31 258 181 150 148 152 237 232 157 127 136 162 173 327 332 296 232 205 199 192 191 194 197 200 198 197 196 199 202 204 202 199 195 190 191 195 195 197 191 193 194 193 195 197 201 197 191 194 197 198 201 200 209 208 209 209 210 211 211 210 208 207 213 221 227 229 229 223 213 215 218 224 232 234 235 238 235
1 358 357 360 1 352 350 347 345 347 316 299 254 202 165 95 44 145 165 177 193 182 187 221 303 280 204 193 193 195 198 198 197 197 197 200 203 205 204 201 196 193 193 194 194 196 195 191 193 192 193 196 202 191 187 193 198 199 202 200 211 212 214 216 215 212 211 211 210 209 211 218 222 229 231 222 221 222 219 221 224 229 231 233 230
357 351 347 344 354 355 350 337 320 326 334 313 256 230 196 149 202 196 184 195 201 189 193 191 193 221 228 198 193 194 195 195 196 196 198 200 202 203 203 201 199 195 196 194 198 197 196 193 189 190 193 199 199 183 186 191 196 200 198 197 208 211 216 220 224 218 210 211 211 211 213 218 219 221 227 228 226 214 215 223 223 230 237 237 236
347 349 341 343 343 343 335 328 325 321 318 314 318 295 220 209 201 195 192 199 202 202 207 209 208 202 208 198 192 192 192 193 194 196 199 200 200 202 202 200 201 197 191 195 196 197 196 197 194 189 193 197 200 185 186 191 195 199 190 200 203 208 215 221 226 218 212 209 211 212 214 217 220 220 218 215 224 222 222 222 225 229 232 235 244
345 342 343 340 335 331 332 326 316 313 308 311 319 317 302 256 229 188 192 202 206 208 209 209 213 213 210 199 193 190 191 192 193 198 199 199 199 199 201 197 201 198 196 195 194 197 197 199 199 199 192 190 201 187 188 191 195 193 186 194 199 204 215 220 229 224 212 213 212 217 215 220 220 224 213 205 212 211 224 227 223 225 230 236 245
346 342 338 335 329 326 325 326 325 319 321 321 317 311 307 299 265 199 191 199 204 210 210 211 212 211 211 202 194 191 190 191 195 199 196 196 196 197 197 198 203 203 201 191 191 196 198 199 201 203 200 195 198 189 191 192 195 190 188 195 194 202 210 219 222 228 228 229 237 237 232 223 221 227 214 203 206 200 213 222 222 225 235 242 244
344 339 336 327 326 327 331 330 323 314 311 307 305 301 297 290 284 262 209 203 207 207 210 209 208 211 208 199 195 191 191 192 195 195 195 196 193 192 196 199 202 203 201 195 190 195 197 200 198 201 202 203 207 193 189 197 194 191 189 191 194 194 208 215 216 219 223 229 235 242 239 237 234 234 222 206 204 200 206 218 217 221 232 240 240
344 337 333 332 330 328 322 317 313 308 307 305 301 299 289 282 278 276 259 234 218 212 206 201 201 205 202 197 194 191 191 193 193 192 192 192 192 194 194 196 200 202 203 201 195 194 197 199 199 200 202 203 207 208 190 191 195 191 193 191 190 198 205 209 212 215 219 222 227 231 236 236 235 235 233 224 210 207 211 213 213 222 224 235 220
344 334 332 331 327 324 323 319 316 311 306 301 299 290 280 276 274 268 261 254 240 214 200 192 191 197 197 194 193 192 191 189 188 184 187 194 196 194 193 195 198 200 202 204 200 194 196 198 200 198 204 205 203 205 189 192 191 192 191 196 194 201 201 205 209 215 218 224 226 225 228 231 231 235 237 232 220 213 220 222 226 226 232 223 212
343 336 330 329 325 321 321 317 313 312 304 297 291 284 280 276 267 263 266 258 243 215 194 195 193 190 191 192 192 186 186 186 186 185 187 192 191 194 195 194 196 199 202 203 201 197 195 197 197 200 203 204 202 203 191 182 192 188 192 198 203 200 203 202 205 212 215 222 223 224 229 228 225 228 230 230 226 220 213 222 230 233 231 218 212
340 332 329 328 321 318 318 318 319 314 308 300 298 300 298 291 277 268 261 257 236 208 201 194 189 191 189 188 187 185 184 187 183 181 186 188 190 194 194 196 196 198 200 202 203 200 197 197 197 199 201 203 201 198 191 183 185 192 193 197 206 210 194 202 207 215 216 220 221 220 222 220 216 219 223 226 227 220 217 222 224 230 229 213 205
336 329 328 329 329 326 322 322 324 320 315 316 315 315 314 305 294 274 257 247 228 214 200 201 196 189 187 186 183 182 185 184 181 179 184 189 191 189 195 198 196 199 200 202 204 201 202 199 198 197 199 200 199 198 189 192 188 192 195 198 204 208 209 202 206 218 218 218 220 215 210 212 218 221 224 231 237 235 231 229 225 225 222 202 205
333 335 339 333 331 326 326 331 332 331 333 334 328 325 316 308 309 287 251 233 218 212 205 200 196 192 188 182 179 182 181 181 178 182 186 189 189 191 198 197 199 201 202 202 203 203 205 205 202 199 198 198 197 198 191 190 198 193 197 200 202 206 211 209 209 214 215 211 203 208 207 196 191 204 203 210 221 227 226 226 233 233 218 211 203
328 323 326 332 338 334 336 337 335 335 336 334 330 326 321 316 312 319 279 223 212 204 200 198 192 188 183 177 176 178 177 180 180 182 187 188 192 196 199 199 199 202 203 204 202 202 206 206 207 202 197 194 195 199 192 188 187 191 202 207 209 215 217 216 229 252 251 213 190 166 163 175 169 178 187 198 207 225 224 221 215 216 211 211 208
318 322 332 334 337 341 338 336 333 335 337 333 329 327 330 325 319 318 322 261 211 203 196 194 188 181 178 177 177 174 172 178 183 184 187 191 196 200 202 203 200 200 200 201 200 203 205 203 206 204 200 196 194 195 192 188 192 191 196 191 196 201 197 202 213 221 218 190 163 129 119 138 138 154 204 173 200 203 209 201 204 197 208 211 214
329 333 339 340 333 339 340 335 333 334 337 335 330 328 330 333 328 328 326 309 231 199 196 189 183 176 176 174 172 172 176 178 182 188 192 194 197 205 209 211 209 205 207 201 200 203 203 204 201 201 199 205 204 203 203 191 187 183 178 180 180 196 198 201 211 210 199 164 135 158 183 179 199 209 205 210 210 205 212 202 197 196 202 198 198
325 326 329 341 340 343 342 339 337 339 339 337 335 333 329 332 333 331 332 327 324 228 190 182 178 176 173 172 171 171 175 179 185 189 192 197 202 204 208 207 207 210 209 209 206 206 202 197 201 205 201 199 205 211 179 170 172 176 182 180 188 190 191 195 206 200 188 193 193 200 203 205 204 203 211 211 213 208 207 202 206 197 192 196 199
327 324 330 347 346 346 342 342 344 345 341 337 332 336 333 335 336 332 332 328 331 349 263 187 174 177 171 175 174 175 178 184 186 188 195 191 193 176 44 347 267 214 203 208 203 210 206 203 201 204 210 217 212 154 156 173 173 180 187 193 194 192 192 201 187 131 171 201 209 213 220 222 220 218 220 220 211 208 208 201 203 194 198 202 203